Wind_Speed
15 15 17 18 18 17 18 18 19 19 18 18 16 16 16 19 23 12 16 15 20 21 13 14 20 22 24 20 21 18 14 16 21 22 15 14 14 10 9 6 12 5 4 7 10
17 17 17 19 19 20 20 19 20 20 19 20 18 17 18 20 21 23 26 25 21 20 17 24 20 22 17 21 17 16 14 24 22 21 15 17 14 17 16 13 13 12 11 12 13
19 19 19 20 20 20 20 21 22 20 20 20 19 17 17 18 13 10 7 25 34 30 25 26 25 20 23 20 22 22 20 22 23 20 17 19 17 17 17 11 9 7 2 16 13
19 21 22 23 22 21 21 21 22 22 21 21 19 18 17 8 7 6 10 3 23 27 24 28 24 25 25 24 23 24 26 24 25 18 18 19 22 18 13 11 10 2 1 12 14
20 21 21 23 24 24 24 24 23 22 21 20 17 14 9 11 15 20 14 6 14 21 28 24 27 26 27 24 24 27 26 25 18 14 22 24 22 18 13 11 6 4 7 7 7
20 21 23 23 23 25 25 24 24 23 22 18 16 12 9 21 20 21 23 9 11 22 26 25 24 24 25 24 26 23 24 21 18 25 24 22 18 16 20 10 3 6 8 11 11
21 22 22 23 24 24 24 25 26 25 24 18 16 8 14 25 15 17 19 25 17 21 18 27 28 26 22 26 24 23 25 23 22 20 22 20 20 16 19 12 17 12 12 11 8
23 22 21 21 22 24 26 28 28 27 26 21 15 8 12 15 31 39 31 22 22 26 21 17 24 24 25 21 23 23 26 21 22 22 24 22 19 16 17 14 16 15 11 13 14
21 22 22 22 22 23 25 30 31 26 22 17 7 11 16 12 30 38 30 29 20 19 16 23 22 19 20 21 20 20 18 25 23 22 23 22 18 17 17 14 14 11 11 10 9
22 21 21 21 23 25 25 29 26 25 14 9 18 11 18 20 28 29 34 32 21 16 18 20 16 18 18 17 21 20 23 21 22 22 21 14 18 16 17 19 11 17 14 11 9
20 20 20 21 20 21 22 17 6 7 15 14 14 17 9 13 23 27 24 29 22 20 20 19 15 22 25 26 26 24 23 23 22 16 9 15 21 18 13 14 19 16 9 7 10
22 21 20 20 21 20 16 10 15 13 12 28 31 27 32 23 11 15 20 22 26 27 22 21 24 26 26 23 27 27 25 23 20 18 14 14 15 13 15 17 19 17 13 8 12
23 21 20 20 21 21 20 28 27 24 10 21 28 31 31 27 24 19 24 24 26 27 26 26 25 26 27 24 26 25 24 20 22 17 16 15 14 14 21 18 13 12 5 3 14
21 20 19 16 15 12 20 17 17 9 7 15 24 27 31 28 33 28 27 24 22 29 30 30 26 28 28 26 25 24 25 24 17 14 12 14 13 13 15 16 11 5 8 10 15
21 18 17 11 20 13 15 12 2 6 7 8 35 10 23 33 10 33 37 28 27 27 23 32 28 30 27 28 27 23 23 18 13 15 14 15 12 14 14 17 7 1 6 13 15
21 18 16 15 20 18 16 14 5 7 14 9 11 27 25 30 34 13 35 29 26 25 27 29 24 29 30 25 25 24 20 11 12 12 12 15 15 14 15 4 4 1 5 13 14
21 18 17 15 17 10 9 10 8 14 9 12 23 26 26 27 32 31 31 30 26 26 28 26 33 30 29 29 22 23 12 11 10 11 11 17 15 15 9 10 1 2 4 12 13
19 16 17 20 18 14 8 7 15 21 35 13 19 24 26 24 28 34 27 26 30 31 15 23 22 33 27 29 24 21 17 11 11 11 16 20 16 3 5 6 2 1 4 12 12
14 15 16 19 17 15 5 11 21 26 17 31 31 27 24 26 22 30 34 30 31 31 24 22 29 23 32 23 22 19 21 17 17 15 12 8 10 13 12 7 9 10 9 12 11
10 9 18 16 20 8 6 15 22 29 36 34 27 17 22 24 28 31 31 30 31 33 26 25 17 28 30 25 22 22 19 16 12 15 13 11 14 4 11 6 10 8 7 12 11
8 2 15 20 16 4 6 17 26 28 31 26 29 28 26 25 22 29 32 30 32 32 31 26 17 21 24 26 22 19 18 16 14 14 11 9 9 3 11 9 9 8 11 12 13
1 3 3 20 7 2 9 18 20 27 30 29 25 27 27 24 21 22 30 32 28 30 34 32 11 16 27 27 26 23 23 17 10 15 10 10 3 11 8 8 7 11 12 14 15
3 6 3 5 5 9 15 21 25 25 27 27 23 22 25 25 12 15 24 30 33 32 30 27 21 13 19 22 23 23 24 19 13 9 14 11 10 10 11 9 6 13 15 14 14
4 3 4 6 5 10 16 21 20 20 26 23 19 25 21 23 19 16 21 15 29 29 32 22 19 22 16 20 22 26 24 23 19 13 14 14 14 13 12 9 10 14 18 16 15
3 5 2 5 7 9 13 21 21 15 22 15 20 22 22 20 22 16 18 20 25 26 25 21 26 21 23 23 27 25 25 26 24 19 18 16 16 11 14 12 11 13 16 17 16
4 4 7 11 10 13 10 14 21 19 20 17 17 19 18 22 18 20 23 20 11 20 20 20 20 21 24 27 26 28 27 26 25 23 22 20 17 13 9 18 13 16 15 15 16
7 7 5 8 11 10 11 10 7 14 14 16 16 18 17 20 18 19 22 21 24 22 23 17 17 22 19 23 23 24 26 26 21 21 22 20 15 13 11 11 8 16 14 13 16
Wind_Direction
332 326 323 323 318 315 312 314 313 316 321 317 320 319 321 317 309 286 244 232 225 231 223 202 207 223 221 229 234 240 253 258 269 282 304 301 311 329 302 202 267 217 193 111 135
334 333 332 325 322 318 314 312 306 308 311 310 315 319 321 323 309 277 256 237 232 220 207 213 207 221 228 230 239 234 245 256 267 284 309 312 308 296 302 254 232 199 185 154 164
329 326 329 327 325 322 317 312 310 306 304 304 311 315 322 325 282 264 232 234 226 227 214 223 222 218 229 239 233 236 246 254 269 292 303 298 296 285 277 290 276 6 347 159 184
320 324 323 320 322 324 323 318 314 309 303 301 305 313 317 306 264 71 23 271 216 214 219 230 231 230 224 234 242 250 249 253 256 275 299 276 276 272 283 286 278 284 294 166 190
308 308 312 315 314 317 317 317 314 309 305 301 299 308 326 237 242 261 284 293 199 202 217 225 230 223 236 236 241 252 256 257 274 284 264 261 260 280 274 280 292 278 229 225 204
303 304 302 302 309 313 316 314 312 309 304 299 299 296 244 254 253 260 254 210 194 206 217 222 240 236 242 245 252 253 258 264 262 253 258 266 263 261 264 256 245 268 258 240 223
309 305 300 301 300 303 309 311 312 313 307 295 296 296 260 245 257 262 271 215 220 202 218 223 231 248 246 247 256 261 263 266 255 254 257 271 260 245 275 230 267 245 234 235 266
313 310 304 304 301 300 301 305 305 307 304 287 280 262 254 254 252 261 259 260 233 235 235 241 230 246 259 270 259 254 260 257 259 252 250 236 252 260 247 240 262 243 245 240 223
315 311 306 306 301 301 306 302 296 297 295 282 247 211 262 254 232 235 234 233 227 218 235 238 240 234 240 249 257 248 252 253 258 247 251 233 236 238 261 280 248 236 244 249 217
307 311 310 306 308 305 301 303 294 289 274 225 245 220 244 241 235 228 225 225 228 232 234 241 228 238 222 225 234 235 240 238 252 259 260 218 241 242 236 249 258 268 245 239 216
309 302 305 302 303 305 309 314 216 200 219 210 200 209 243 214 228 220 210 216 226 229 223 225 221 225 224 223 237 244 251 246 253 258 220 236 238 241 255 276 285 291 282 241 183
309 309 301 303 297 298 291 258 268 332 286 228 252 230 246 269 243 223 203 204 206 220 215 215 221 224 231 226 231 243 252 261 273 283 286 284 264 279 286 271 264 263 264 254 151
304 305 300 302 302 288 256 253 268 295 274 259 233 235 236 235 237 228 211 205 207 211 214 218 222 222 233 223 229 234 243 254 261 273 270 277 270 264 263 269 265 255 219 228 144
303 300 301 297 296 281 266 260 240 268 275 252 215 237 222 224 238 222 209 207 213 211 215 226 225 222 225 229 220 232 232 239 254 274 270 281 289 279 294 272 257 237 203 169 155
302 289 290 265 296 291 352 350 325 224 263 233 213 193 195 198 180 207 216 199 210 210 211 225 219 230 220 221 231 233 239 242 236 247 259 268 269 276 289 281 233 169 222 177 158
299 288 275 273 249 275 286 303 252 225 235 241 221 185 190 200 216 206 198 218 212 221 223 229 228 227 233 228 220 233 237 248 257 260 249 250 259 270 266 320 101 297 228 138 156
297 277 254 258 266 277 305 269 210 226 235 248 172 175 195 194 207 226 190 202 205 210 226 217 227 231 232 229 215 224 213 224 225 237 252 250 246 245 280 297 330 313 128 147 146
296 270 256 246 252 261 283 238 225 231 240 286 205 182 200 208 203 213 186 203 208 208 210 219 219 222 216 229 218 198 207 219 226 223 245 236 242 261 98 91 74 79 74 123 146
294 269 251 239 233 231 236 226 226 244 267 242 281 283 203 214 210 203 219 201 203 207 214 208 227 208 228 208 218 194 212 215 250 251 284 281 221 217 171 166 198 196 141 131 147
281 264 246 233 217 193 219 238 252 245 262 289 291 311 305 219 222 194 203 217 209 205 219 235 215 225 208 210 204 219 192 208 232 244 266 279 277 225 138 199 150 127 143 134 148
277 287 267 215 200 185 218 218 239 256 274 278 273 299 304 301 278 209 209 220 203 207 210 226 243 210 207 204 192 205 222 199 225 225 226 243 257 276 149 128 121 155 138 146 156
183 253 350 171 178 249 241 243 268 274 283 290 290 280 291 304 309 296 214 215 208 208 200 214 225 238 209 199 197 206 216 192 214 219 253 253 242 98 110 137 135 114 138 154 161
264 269 144 180 215 233 251 256 259 265 272 267 277 275 283 308 308 286 266 209 217 193 208 202 224 227 224 205 184 212 218 215 210 223 213 234 243 160 159 157 158 144 141 164 166
297 288 176 201 229 276 269 272 281 286 273 261 277 279 286 282 278 279 292 283 204 217 202 187 220 222 219 197 178 195 216 215 212 216 225 237 248 145 152 172 204 156 150 167 172
244 269 276 284 277 276 310 274 275 280 291 234 259 272 264 275 285 292 351 338 315 218 190 186 211 218 229 229 193 197 207 221 216 212 222 224 244 202 181 187 218 151 157 168 179
289 315 325 297 292 276 244 267 267 264 268 294 292 244 258 270 281 312 321 325 294 335 195 188 208 222 211 231 212 205 205 216 224 213 214 230 230 234 202 191 193 153 160 177 178
268 288 300 293 291 293 265 280 283 303 283 250 265 277 297 289 286 290 311 293 287 288 296 186 192 204 223 217 236 208 202 206 219 224 209 216 223 238 230 211 176 142 160 193 181
Height
811 808 805 803 803 802 799 795 796 793 790 790 787 784 778 777 776 771 763 760 761 763 766 765 765 765 762 759 754 752 774 774 762 750 738 721 727 715 714 724 726 725 730 736 741
807 805 802 802 800 797 794 793 794 790 787 788 785 780 777 775 771 759 754 755 757 757 761 762 758 759 759 756 752 757 769 762 741 732 734 726 728 726 727 724 723 723 725 732 738
806 805 801 800 798 796 793 791 790 788 786 785 781 776 775 774 767 743 741 745 749 752 754 755 753 751 757 751 749 749 758 744 738 729 727 730 729 722 724 730 721 727 723 728 735
804 802 800 798 796 793 790 788 786 784 783 781 777 772 772 773 769 739 742 743 744 749 754 750 749 752 751 753 742 753 736 732 729 725 730 734 723 726 720 721 713 715 719 724 729
803 801 799 798 796 791 788 786 784 780 779 777 774 772 772 764 747 744 743 743 743 748 748 746 744 743 747 738 739 741 731 723 721 725 729 720 723 722 720 711 710 713 718 721 725
800 798 797 795 792 789 786 784 781 779 776 773 769 770 773 763 742 741 741 742 742 744 742 742 740 732 736 735 735 726 724 721 722 724 718 721 718 717 715 710 713 716 719 720 721
797 795 793 790 788 785 783 780 776 772 768 767 768 769 763 741 736 733 733 735 738 739 737 738 739 735 727 733 721 721 732 722 718 715 718 712 724 722 711 708 714 713 713 716 719
794 792 789 787 785 782 779 775 772 769 766 765 766 769 749 735 733 730 732 729 731 732 730 730 731 730 729 722 724 731 729 738 715 710 705 711 735 712 704 704 711 707 708 711 715
792 789 786 784 782 779 776 772 768 765 763 762 765 762 739 723 721 717 722 724 723 725 725 726 726 727 732 741 741 731 743 735 721 699 699 701 722 708 700 701 704 703 703 704 707
790 787 784 782 779 776 773 768 759 762 760 762 758 757 729 712 707 710 714 717 721 721 724 725 725 732 730 738 747 742 733 725 723 700 690 703 710 701 696 696 698 697 694 696 701
788 786 782 779 777 774 772 765 754 753 750 729 719 709 693 696 701 703 703 710 714 717 730 724 735 732 724 720 721 719 717 715 698 682 704 707 704 697 691 693 694 691 689 692 697
785 783 780 777 774 772 772 765 744 748 736 721 711 704 699 696 699 694 695 706 712 721 719 726 725 714 709 711 716 717 718 713 696 684 691 696 699 692 690 690 687 686 686 687 693
783 781 778 775 771 766 763 756 751 747 737 708 696 696 695 695 692 689 689 692 701 716 712 714 704 704 703 706 712 711 714 712 708 693 688 695 705 699 685 677 674 674 676 681 693
779 778 776 775 772 759 752 748 748 749 738 692 675 664 677 687 681 675 673 685 693 703 704 698 692 693 698 698 698 713 692 694 700 710 727 694 728 700 688 682 672 673 675 680 688
775 774 773 773 766 759 755 748 747 747 736 638 639 635 642 659 654 660 664 672 687 690 695 683 686 689 686 687 682 693 678 685 693 707 712 715 724 704 683 685 673 673 671 675 683
770 769 769 769 766 760 757 753 751 746 710 641 607 634 646 652 653 637 658 660 669 681 672 676 662 666 669 662 667 669 680 686 693 703 728 713 718 711 692 679 675 670 667 673 682
764 764 765 764 759 757 755 754 746 719 652 634 621 628 639 647 654 654 660 669 670 690 680 672 668 654 652 668 659 671 690 723 739 736 734 700 709 694 671 667 668 671 669 674 681
758 758 757 758 758 758 759 754 732 681 672 607 610 623 638 634 642 647 650 662 653 660 671 679 685 654 642 652 666 671 688 713 744 738 720 680 703 687 662 659 662 665 669 676 684
755 753 753 752 753 755 758 748 711 691 657 654 637 643 625 625 623 641 638 640 636 639 664 663 661 637 637 638 646 669 688 676 701 690 702 690 679 664 656 663 664 667 672 681 688
752 750 744 745 748 752 752 737 701 688 674 669 670 642 644 617 622 625 630 617 629 627 631 639 660 630 632 631 638 653 658 699 696 729 734 704 691 685 674 669 665 670 676 683 689
751 749 733 737 743 749 738 721 701 693 683 682 673 662 653 645 620 606 617 611 609 616 624 628 636 637 624 635 651 660 664 671 682 690 715 722 697 650 660 661 670 669 673 682 689
751 747 733 735 745 743 735 715 711 701 692 688 680 671 664 648 641 629 598 598 585 601 622 614 628 646 629 615 623 641 656 662 690 701 686 687 689 647 652 656 659 667 672 681 686
747 735 734 737 735 736 721 713 707 700 693 689 685 679 668 664 660 621 601 572 578 590 602 610 634 647 637 625 624 647 646 648 659 670 688 699 688 647 649 654 657 666 672 682 684
749 738 728 734 729 726 718 708 705 699 688 687 697 687 687 677 651 636 610 580 566 573 588 600 618 633 639 627 627 648 644 642 656 679 683 677 668 655 658 660 658 660 666 675 680
746 725 723 722 724 726 728 716 705 713 689 682 686 683 682 674 657 636 639 633 594 566 582 597 626 616 615 611 614 628 640 642 649 655 673 669 665 652 650 654 651 653 663 670 678
747 737 727 721 717 717 719 708 696 691 688 685 688 676 677 676 665 666 661 651 636 611 579 588 620 616 622 610 605 623 626 634 636 641 653 655 658 637 634 637 643 650 658 667 673
741 741 739 725 718 717 708 703 696 695 681 678 677 675 675 677 665 659 656 650 642 639 623 590 601 621 630 613 611 626 616 623 628 627 636 655 646 634 636 636 639 648 654 660 664